| time (UTC) | temp F | wind direction | speed MPH | gust MPH | rain 1hr in | rain 24hr in | rain mn in | humidity % | barometer mb |
| 20260506035536 | 51 | 352 | 0.0 | 2.0 | 0.00 | 0.04 | 0.04 | 61 | 1008.8 |
| 20260506035032 | 50 | 331 | 0.0 | 1.0 | 0.00 | 0.04 | 0.04 | 62 | 1008.9 |
| 20260506034530 | 50 | 346 | 0.0 | 2.0 | 0.00 | 0.04 | 0.04 | 62 | 1008.6 |
| 20260506034026 | 50 | 83 | 0.0 | 2.0 | 0.00 | 0.04 | 0.04 | 64 | 1008.8 |
| 20260506033524 | 50 | 228 | 0.0 | 2.0 | 0.00 | 0.04 | 0.04 | 64 | 1008.7 |
| 20260506033021 | 50 | 90 | 0.0 | 1.0 | 0.00 | 0.04 | 0.04 | 64 | 1008.4 |
| 20260506032518 | 50 | 99 | 0.0 | 0.0 | 0.00 | 0.04 | 0.04 | 65 | 1008.6 |
| 20260506032015 | 50 | 106 | 0.0 | 0.0 | 0.00 | 0.04 | 0.04 | 65 | 1008.6 |
| 20260506031513 | 50 | 106 | 0.0 | 2.0 | 0.00 | 0.04 | 0.04 | 65 | 1008.5 |
| 20260506031009 | 50 | 331 | 0.0 | 2.0 | 0.00 | 0.04 | 0.04 | 66 | 1008.6 |
| 20260506030508 | 50 | 254 | 0.0 | 0.0 | 0.00 | 0.04 | 0.04 | 66 | 1008.4 |
| 20260506030005 | 50 | 15 | 0.0 | 0.0 | 0.00 | 0.04 | 0.04 | 67 | 1008.5 |
| 20260506025501 | 50 | 188 | 0.0 | 0.0 | 0.00 | 0.04 | 0.04 | 67 | 1008.5 |
| 20260506024957 | 50 | 8 | 0.0 | 0.0 | 0.00 | 0.04 | 0.04 | 66 | 1008.2 |
| 20260506024454 | 50 | 8 | 0.0 | 0.0 | 0.00 | 0.04 | 0.04 | 65 | 1008.2 |
| 20260506023950 | 50 | 8 | 0.0 | 0.0 | 0.00 | 0.04 | 0.04 | 65 | 1007.8 |
| 20260506023447 | 51 | 337 | 0.0 | 0.0 | 0.00 | 0.04 | 0.04 | 63 | 1008.0 |
| 20260506022944 | 51 | 337 | 0.0 | 0.0 | 0.00 | 0.04 | 0.04 | 64 | 1008.0 |
| 20260506022442 | 50 | 15 | 0.0 | 0.0 | 0.00 | 0.04 | 0.04 | 64 | 1008.0 |
| 20260506021939 | 51 | 15 | 0.0 | 0.0 | 0.00 | 0.04 | 0.04 | 64 | 1008.3 |
| 20260506021436 | 51 | 15 | 0.0 | 0.0 | 0.00 | 0.04 | 0.04 | 63 | 1008.1 |
| 20260506020933 | 51 | 15 | 0.0 | 0.0 | 0.00 | 0.04 | 0.04 | 63 | 1008.1 |
| 20260506020431 | 51 | 263 | 1.0 | 1.0 | 0.00 | 0.04 | 0.04 | 62 | 1007.9 |
| 20260506015928 | 51 | 352 | 0.0 | 2.0 | 0.00 | 0.04 | 0.04 | 61 | 1007.7 |
| 20260506015426 | 51 | 0 | 0.0 | 1.0 | 0.00 | 0.04 | 0.04 | 62 | 1007.6 |
| 20260506014922 | 51 | 75 | 0.0 | 0.0 | 0.00 | 0.04 | 0.04 | 63 | 1007.6 |
| 20260506014419 | 51 | 262 | 0.0 | 1.0 | 0.00 | 0.04 | 0.04 | 63 | 1007.7 |
| 20260506013916 | 51 | 99 | 0.0 | 0.0 | 0.00 | 0.04 | 0.04 | 62 | 1007.4 |
| 20260506013414 | 51 | 99 | 0.0 | 0.0 | 0.00 | 0.04 | 0.04 | 61 | 1007.5 |
| 20260506012910 | 51 | 276 | 0.0 | 0.0 | 0.00 | 0.04 | 0.04 | 62 | 1007.3 |
| 20260506012407 | 51 | 276 | 0.0 | 0.0 | 0.00 | 0.04 | 0.04 | 62 | 1007.5 |
| 20260506011904 | 51 | 254 | 0.0 | 0.0 | 0.00 | 0.04 | 0.04 | 62 | 1007.1 |
| 20260506011401 | 51 | 254 | 0.0 | 0.0 | 0.00 | 0.04 | 0.04 | 61 | 1007.2 |
| 20260506010858 | 52 | 254 | 0.0 | 0.0 | 0.00 | 0.04 | 0.04 | 60 | 1007.1 |
| 20260506010356 | 52 | 254 | 0.0 | 1.0 | 0.00 | 0.04 | 0.04 | 60 | 1007.3 |
| 20260506005852 | 52 | 98 | 0.0 | 2.0 | 0.00 | 0.04 | 0.04 | 58 | 1007.0 |
| 20260506005350 | 52 | 187 | 0.0 | 1.0 | 0.00 | 0.04 | 0.04 | 59 | 1007.1 |
| 20260506004845 | 52 | 14 | 0.0 | 0.0 | 0.00 | 0.04 | 0.04 | 59 | 1007.6 |
| 20260506004343 | 52 | 257 | 1.0 | 1.0 | 0.00 | 0.04 | 0.04 | 59 | 1007.0 |
| 20260506003839 | 52 | 102 | 0.0 | 0.0 | 0.00 | 0.04 | 0.04 | 60 | 1006.8 |
| 20260506003335 | 53 | 259 | 0.0 | 2.0 | 0.00 | 0.04 | 0.04 | 58 | 1006.9 |
| 20260506002832 | 53 | 0 | 0.0 | 3.0 | 0.00 | 0.04 | 0.04 | 55 | 1006.8 |
| 20260506002329 | 53 | 97 | 0.0 | 2.0 | 0.00 | 0.04 | 0.04 | 56 | 1007.0 |
| 20260506001824 | 53 | 265 | 0.0 | 2.0 | 0.00 | 0.04 | 0.04 | 55 | 1007.1 |
| 20260506001321 | 53 | 339 | 0.0 | 3.0 | 0.00 | 0.04 | 0.04 | 53 | 1006.9 |
| 20260506000818 | 53 | 106 | 0.0 | 2.0 | 0.00 | 0.04 | 0.04 | 54 | 1006.8 |
| 20260506000316 | 53 | 234 | 1.0 | 3.0 | 0.00 | 0.04 | 0.04 | 52 | 1006.9 |
| 20260505235812 | 54 | 345 | 0.0 | 2.0 | 0.00 | 0.04 | 0.04 | 52 | 1007.0 |
| 20260505235310 | 54 | 278 | 0.0 | 1.0 | 0.00 | 0.04 | 0.04 | 51 | 1006.7 |
| 20260505234807 | 54 | 277 | 0.0 | 3.0 | 0.00 | 0.04 | 0.04 | 50 | 1006.6 |
| 20260505234305 | 54 | 262 | 4.0 | 4.0 | 0.00 | 0.04 | 0.04 | 49 | 1006.7 |
| 20260505233801 | 54 | 102 | 0.0 | 2.0 | 0.00 | 0.04 | 0.04 | 50 | 1006.8 |
| 20260505233259 | 54 | 99 | 0.0 | 2.0 | 0.00 | 0.04 | 0.04 | 49 | 1007.0 |
| 20260505232756 | 54 | 39 | 0.0 | 3.0 | 0.00 | 0.04 | 0.04 | 48 | 1006.6 |
| 20260505232254 | 54 | 318 | 3.0 | 5.0 | 0.00 | 0.04 | 0.04 | 46 | 1006.9 |
| 20260505231750 | 54 | 297 | 2.0 | 4.0 | 0.00 | 0.04 | 0.04 | 46 | 1007.0 |
| 20260505231249 | 55 | 246 | 0.0 | 3.0 | 0.00 | 0.04 | 0.04 | 48 | 1007.1 |
| 20260505230747 | 55 | 90 | 0.0 | 4.0 | 0.00 | 0.04 | 0.04 | 46 | 1006.9 |
| 20260505230243 | 55 | 354 | 1.0 | 4.0 | 0.00 | 0.04 | 0.04 | 46 | 1007.0 |
| 20260505225740 | 55 | 278 | 1.0 | 5.0 | 0.00 | 0.04 | 0.04 | 45 | 1007.0 |
| 20260505225237 | 55 | 348 | 2.0 | 4.0 | 0.00 | 0.04 | 0.04 | 47 | 1006.7 |
| 20260505224732 | 55 | 311 | 3.0 | 4.0 | 0.00 | 0.04 | 0.04 | 45 | 1007.0 |
| 20260505224230 | 55 | 90 | 1.0 | 3.0 | 0.00 | 0.04 | 0.04 | 46 | 1007.2 |
| 20260505223727 | 55 | 328 | 3.0 | 3.0 | 0.00 | 0.04 | 0.04 | 46 | 1007.1 |
| 20260505223223 | 55 | 53 | 2.0 | 3.0 | 0.00 | 0.04 | 0.04 | 46 | 1007.3 |
| 20260505222719 | 55 | 18 | 0.0 | 6.0 | 0.00 | 0.04 | 0.04 | 46 | 1007.3 |
| 20260505222215 | 55 | 270 | 2.0 | 5.0 | 0.00 | 0.04 | 0.04 | 44 | 1007.4 |
| 20260505221713 | 55 | 73 | 3.0 | 6.0 | 0.00 | 0.04 | 0.04 | 42 | 1007.6 |
| 20260505221209 | 55 | 77 | 2.0 | 4.0 | 0.00 | 0.04 | 0.04 | 44 | 1007.3 |
| 20260505220707 | 55 | 333 | 4.0 | 5.0 | 0.00 | 0.04 | 0.04 | 45 | 1007.2 |
| 20260505220204 | 55 | 67 | 3.0 | 4.0 | 0.00 | 0.04 | 0.04 | 44 | 1007.2 |
| 20260505215702 | 55 | 348 | 2.0 | 5.0 | 0.00 | 0.04 | 0.04 | 45 | 1007.0 |
| 20260505215200 | 55 | 210 | 0.0 | 5.0 | 0.00 | 0.04 | 0.04 | 51 | 1007.3 |
| 20260505214657 | 55 | 345 | 2.0 | 8.0 | 0.00 | 0.04 | 0.04 | 49 | 1007.3 |
| 20260505214154 | 55 | 301 | 2.0 | 4.0 | 0.00 | 0.04 | 0.04 | 48 | 1007.3 |
| 20260505213652 | 55 | 5 | 0.0 | 3.0 | 0.00 | 0.04 | 0.04 | 49 | 1007.3 |
| 20260505213148 | 55 | 90 | 0.0 | 3.0 | 0.00 | 0.04 | 0.04 | 49 | 1007.2 |
| 20260505212644 | 55 | 344 | 0.0 | 5.0 | 0.00 | 0.04 | 0.04 | 47 | 1007.5 |
| 20260505212142 | 55 | 187 | 1.0 | 7.0 | 0.00 | 0.04 | 0.04 | 46 | 1007.6 |
| 20260505211639 | 56 | 315 | 3.0 | 6.0 | 0.00 | 0.04 | 0.04 | 46 | 1007.6 |
| 20260505211136 | 56 | 102 | 0.0 | 4.0 | 0.00 | 0.04 | 0.04 | 46 | 1007.4 |
| 20260505210633 | 55 | 0 | 0.0 | 3.0 | 0.00 | 0.04 | 0.04 | 49 | 1007.7 |
| 20260505210129 | 55 | 332 | 2.0 | 5.0 | 0.00 | 0.04 | 0.04 | 47 | 1007.5 |
| 20260505205627 | 55 | 337 | 3.0 | 6.0 | 0.00 | 0.04 | 0.04 | 46 | 1007.6 |
| 20260505205125 | 55 | 41 | 2.0 | 7.0 | 0.00 | 0.04 | 0.04 | 51 | 1007.6 |
| 20260505204622 | 55 | 218 | 5.0 | 5.0 | 0.00 | 0.04 | 0.04 | 50 | 1007.6 |
| 20260505204119 | 55 | 54 | 0.0 | 7.0 | 0.00 | 0.04 | 0.04 | 51 | 1008.0 |
| 20260505203616 | 55 | 296 | 3.0 | 6.0 | 0.00 | 0.04 | 0.04 | 49 | 1007.8 |
| 20260505203113 | 55 | 240 | 3.0 | 4.0 | 0.00 | 0.04 | 0.04 | 51 | 1007.8 |
| 20260505202609 | 55 | 49 | 2.0 | 4.0 | 0.00 | 0.04 | 0.04 | 50 | 1007.9 |
| 20260505202105 | 55 | 283 | 2.0 | 4.0 | 0.00 | 0.04 | 0.04 | 53 | 1008.0 |
| 20260505201602 | 54 | 4 | 3.0 | 7.0 | 0.00 | 0.04 | 0.04 | 51 | 1008.2 |
| 20260505201100 | 54 | 277 | 3.0 | 5.0 | 0.00 | 0.04 | 0.04 | 52 | 1008.0 |
| 20260505200557 | 54 | 14 | 2.0 | 4.0 | 0.00 | 0.04 | 0.04 | 51 | 1008.0 |
| 20260505200054 | 54 | 97 | 0.0 | 8.0 | 0.00 | 0.04 | 0.04 | 53 | 1008.3 |
| 20260505195550 | 54 | 328 | 3.0 | 7.0 | 0.00 | 0.04 | 0.04 | 51 | 1008.0 |
| 20260505195048 | 55 | 270 | 1.0 | 3.0 | 0.00 | 0.04 | 0.04 | 53 | 1007.9 |
| 20260505194545 | 55 | 310 | 2.0 | 3.0 | 0.00 | 0.04 | 0.04 | 52 | 1007.8 |
| 20260505194040 | 55 | 214 | 2.0 | 3.0 | 0.00 | 0.04 | 0.04 | 51 | 1007.9 |
| 20260505193537 | 55 | 263 | 0.0 | 5.0 | 0.00 | 0.04 | 0.04 | 48 | 1007.8 |
| 20260505193035 | 55 | 270 | 0.0 | 5.0 | 0.00 | 0.04 | 0.04 | 50 | 1007.9 |
| 20260505192533 | 55 | 14 | 1.0 | 3.0 | 0.00 | 0.04 | 0.04 | 52 | 1007.8 |
| 20260505192030 | 55 | 227 | 3.0 | 5.0 | 0.00 | 0.04 | 0.04 | 51 | 1007.9 |
| 20260505191528 | 55 | 41 | 0.0 | 6.0 | 0.00 | 0.04 | 0.04 | 51 | 1007.9 |
| 20260505191026 | 56 | 79 | 0.0 | 4.0 | 0.00 | 0.04 | 0.04 | 53 | 1007.8 |
| 20260505190520 | 55 | 250 | 0.0 | 7.0 | 0.00 | 0.04 | 0.04 | 49 | 1008.0 |
| 20260505190017 | 55 | 70 | 0.0 | 3.0 | 0.00 | 0.04 | 0.04 | 50 | 1007.9 |
| 20260505185514 | 56 | 17 | 2.0 | 3.0 | 0.00 | 0.04 | 0.04 | 50 | 1007.9 |
| 20260505185010 | 56 | 106 | 1.0 | 5.0 | 0.00 | 0.04 | 0.04 | 47 | 1008.0 |
| 20260505184507 | 56 | 29 | 0.0 | 4.0 | 0.00 | 0.04 | 0.04 | 47 | 1007.9 |
| 20260505184003 | 57 | 77 | 0.0 | 4.0 | 0.00 | 0.04 | 0.04 | 53 | 1007.8 |
| 20260505183500 | 56 | 33 | 2.0 | 5.0 | 0.00 | 0.04 | 0.04 | 48 | 1007.9 |
| 20260505182957 | 56 | 70 | 5.0 | 5.0 | 0.00 | 0.04 | 0.04 | 47 | 1008.1 |
| 20260505182454 | 56 | 286 | 1.0 | 5.0 | 0.00 | 0.04 | 0.04 | 46 | 1008.2 |
| 20260505181950 | 56 | 47 | 3.0 | 5.0 | 0.00 | 0.04 | 0.04 | 47 | 1007.6 |
| 20260505181448 | 56 | 337 | 0.0 | 3.0 | 0.00 | 0.04 | 0.04 | 48 | 1008.1 |
| 20260505180945 | 56 | 12 | 2.0 | 4.0 | 0.00 | 0.04 | 0.04 | 49 | 1008.0 |
| 20260505180441 | 56 | 240 | 1.0 | 3.0 | 0.00 | 0.04 | 0.04 | 50 | 1008.0 |
| 20260505175938 | 55 | 297 | 2.0 | 5.0 | 0.00 | 0.04 | 0.04 | 47 | 1007.9 |
| 20260505175434 | 56 | 270 | 2.0 | 8.0 | 0.00 | 0.04 | 0.04 | 50 | 1007.8 |
| 20260505174930 | 56 | 300 | 1.0 | 3.0 | 0.00 | 0.04 | 0.04 | 48 | 1007.9 |
| 20260505174428 | 55 | 291 | 1.0 | 4.0 | 0.00 | 0.04 | 0.04 | 51 | 1007.8 |
| 20260505173924 | 55 | 53 | 2.0 | 5.0 | 0.00 | 0.04 | 0.04 | 56 | 1007.8 |
| 20260505173420 | 55 | 0 | 0.0 | 3.0 | 0.00 | 0.04 | 0.04 | 55 | 1007.8 |
| 20260505172918 | 55 | 90 | 0.0 | 6.0 | 0.00 | 0.04 | 0.04 | 58 | 1007.7 |
| 20260505172416 | 55 | 199 | 4.0 | 6.0 | 0.00 | 0.04 | 0.04 | 57 | 1007.9 |
| 20260505171915 | 55 | 114 | 1.0 | 2.0 | 0.00 | 0.04 | 0.04 | 55 | 1007.8 |
| 20260505171412 | 55 | 97 | 3.0 | 8.0 | 0.00 | 0.04 | 0.04 | 57 | 1007.8 |
| 20260505170909 | 55 | 90 | 0.0 | 5.0 | 0.00 | 0.04 | 0.04 | 58 | 1007.7 |
| 20260505170405 | 55 | 307 | 2.0 | 6.0 | 0.00 | 0.04 | 0.04 | 58 | 1007.8 |
| 20260505165901 | 55 | 352 | 0.0 | 5.0 | 0.00 | 0.04 | 0.04 | 56 | 1007.8 |
| 20260505165356 | 55 | 26 | 2.0 | 3.0 | 0.00 | 0.04 | 0.04 | 59 | 1007.8 |
| 20260505164852 | 55 | 346 | 0.0 | 4.0 | 0.00 | 0.04 | 0.04 | 55 | 1007.6 |
| 20260505164349 | 56 | 258 | 3.0 | 5.0 | 0.00 | 0.04 | 0.04 | 58 | 1007.7 |
| 20260505163847 | 57 | 263 | 3.0 | 4.0 | 0.00 | 0.04 | 0.04 | 58 | 1007.8 |
| 20260505163346 | 56 | 294 | 0.0 | 3.0 | 0.00 | 0.04 | 0.04 | 53 | 1007.3 |
| 20260505162844 | 56 | 97 | 0.0 | 6.0 | 0.00 | 0.04 | 0.04 | 53 | 1007.7 |
| 20260505162340 | 56 | 240 | 0.0 | 4.0 | 0.00 | 0.04 | 0.04 | 56 | 1007.8 |
| 20260505161837 | 56 | 257 | 2.0 | 4.0 | 0.00 | 0.04 | 0.04 | 55 | 1007.7 |
| 20260505161334 | 56 | 0 | 0.0 | 7.0 | 0.00 | 0.04 | 0.04 | 53 | 1007.6 |
| 20260505160831 | 56 | 32 | 0.0 | 3.0 | 0.00 | 0.04 | 0.04 | 58 | 1007.6 |
| 20260505160329 | 55 | 232 | 4.0 | 4.0 | 0.00 | 0.04 | 0.04 | 57 | 1007.6 |
| 20260505153308 | 54 | 12 | 0.0 | 2.0 | 0.00 | 0.04 | 0.04 | 67 | 1007.5 |
| 20260505152805 | 54 | 84 | 0.0 | 4.0 | 0.00 | 0.04 | 0.04 | 65 | 1007.4 |
| 20260505152304 | 54 | 39 | 0.0 | 5.0 | 0.00 | 0.04 | 0.04 | 66 | 1007.4 |
| 20260505151756 | 54 | 225 | 2.0 | 3.0 | 0.00 | 0.04 | 0.04 | 67 | 1007.1 |
| 20260505151254 | 54 | 36 | 3.0 | 3.0 | 0.00 | 0.04 | 0.04 | 71 | 1007.2 |
| 20260505150750 | 53 | 251 | 0.0 | 3.0 | 0.00 | 0.04 | 0.04 | 73 | 1007.2 |
| 20260505150247 | 52 | 99 | 0.0 | 3.0 | 0.00 | 0.04 | 0.04 | 77 | 1007.4 |
| 20260505140212 | 46 | 84 | 1.0 | 4.0 | 0.02 | 0.04 | 0.04 | 88 | 1007.4 |
| 20260505130136 | 46 | 105 | 0.0 | 5.0 | 0.07 | 0.02 | 0.02 | 83 | 1007.9 |
| 20260505124625 | 46 | 26 | 0.0 | 3.0 | 0.00 | 0.01 | 0.01 | 79 | 1007.3 |
| 20260505124122 | 46 | 77 | 0.0 | 6.0 | 0.02 | 0.01 | 0.01 | 78 | 1007.5 |
| 20260505123617 | 46 | 29 | 1.0 | 5.0 | 0.05 | 0.01 | 0.01 | 78 | 1007.2 |
| 20260505123114 | 47 | 62 | 3.0 | 4.0 | 0.02 | 0.01 | 0.01 | 78 | 1006.7 |
| 20260505122611 | 47 | 48 | 4.0 | 4.0 | 0.00 | 0.00 | 0.00 | 78 | 1007.0 |
| 20260505122109 | 48 | 8 | 3.0 | 7.0 | 0.02 | 0.00 | 0.00 | 77 | 1006.7 |
| 20260505121605 | 48 | 347 | 3.0 | 3.0 | 0.00 | 0.00 | 0.00 | 77 | 1006.6 |
| 20260505121102 | 49 | 90 | 1.0 | 3.0 | 0.00 | 0.00 | 0.00 | 75 | 1007.1 |
| 20260505120558 | 49 | 270 | 6.0 | 6.0 | 0.00 | 0.00 | 0.00 | 74 | 1006.7 |
| 20260505120054 | 49 | 262 | 2.0 | 7.0 | 0.00 | 0.00 | 0.00 | 73 | 1006.9 |
| 20260505115548 | 49 | 197 | 2.0 | 6.0 | 0.00 | 0.00 | 0.00 | 74 | 1006.8 |
| 20260505115046 | 50 | 355 | 1.0 | 5.0 | 0.00 | 0.00 | 0.00 | 73 | 1006.7 |
| 20260505114543 | 50 | 79 | 2.0 | 5.0 | 0.00 | 0.00 | 0.00 | 74 | 1006.4 |
| 20260505114039 | 50 | 39 | 0.0 | 5.0 | 0.00 | 0.00 | 0.00 | 73 | 1006.3 |
| 20260505113536 | 50 | 340 | 0.0 | 6.0 | 0.00 | 0.00 | 0.00 | 74 | 1006.2 |
| 20260505113032 | 50 | 356 | 0.0 | 3.0 | 0.00 | 0.00 | 0.00 | 76 | 1006.0 |
| 20260505112528 | 50 | 352 | 2.0 | 5.0 | 0.00 | 0.00 | 0.00 | 75 | 1005.3 |
| 20260505112026 | 50 | 113 | 0.0 | 5.0 | 0.00 | 0.00 | 0.00 | 75 | 1005.5 |
| 20260505111520 | 50 | 282 | 0.0 | 3.0 | 0.00 | 0.00 | 0.00 | 76 | 1005.3 |
| 20260505111017 | 50 | 206 | 0.0 | 3.0 | 0.00 | 0.00 | 0.00 | 75 | 1005.2 |
| 20260505110514 | 50 | 328 | 2.0 | 4.0 | 0.00 | 0.00 | 0.00 | 76 | 1005.3 |
| 20260505101945 | 51 | 74 | 1.0 | 3.0 | 0.00 | 0.00 | 0.00 | 74 | 1004.9 |
| 20260505101438 | 51 | 237 | 0.0 | 4.0 | 0.00 | 0.00 | 0.00 | 75 | 1005.1 |
| 20260505100934 | 51 | 114 | 0.0 | 5.0 | 0.00 | 0.00 | 0.00 | 76 | 1004.9 |
| 20260505100431 | 51 | 96 | 0.0 | 3.0 | 0.00 | 0.00 | 0.00 | 75 | 1004.8 |
| 20260505095927 | 51 | 270 | 1.0 | 2.0 | 0.00 | 0.00 | 0.00 | 75 | 1005.1 |
| 20260505095424 | 51 | 60 | 0.0 | 2.0 | 0.00 | 0.00 | 0.00 | 74 | 1004.9 |
| 20260505094920 | 51 | 0 | 0.0 | 3.0 | 0.00 | 0.00 | 0.00 | 73 | 1004.4 |
| 20260505094417 | 51 | 246 | 2.0 | 3.0 | 0.00 | 0.00 | 0.00 | 73 | 1004.2 |
| 20260505093913 | 51 | 22 | 2.0 | 5.0 | 0.00 | 0.00 | 0.00 | 72 | 1004.0 |
| 20260505093410 | 52 | 20 | 0.0 | 3.0 | 0.00 | 0.00 | 0.00 | 72 | 1004.3 |
| 20260505092908 | 52 | 289 | 3.0 | 4.0 | 0.00 | 0.00 | 0.00 | 71 | 1004.6 |
| 20260505092406 | 52 | 105 | 0.0 | 2.0 | 0.00 | 0.00 | 0.00 | 71 | 1003.9 |
| 20260505091903 | 52 | 254 | 1.0 | 3.0 | 0.00 | 0.00 | 0.00 | 70 | 1004.4 |
| 20260505091400 | 52 | 356 | 2.0 | 3.0 | 0.00 | 0.00 | 0.00 | 70 | 1004.8 |
| 20260505090858 | 52 | 15 | 1.0 | 6.0 | 0.00 | 0.00 | 0.00 | 70 | 1004.6 |
| 20260505090356 | 52 | 345 | 2.0 | 3.0 | 0.00 | 0.00 | 0.00 | 69 | 1004.9 |
| 20260505085853 | 53 | 216 | 3.0 | 3.0 | 0.00 | 0.00 | 0.00 | 69 | 1004.3 |
| 20260505085351 | 52 | 339 | 2.0 | 4.0 | 0.00 | 0.00 | 0.00 | 69 | 1004.1 |
| 20260505084849 | 53 | 265 | 2.0 | 4.0 | 0.00 | 0.00 | 0.00 | 70 | 1004.0 |
| 20260505084347 | 53 | 334 | 2.0 | 3.0 | 0.00 | 0.00 | 0.00 | 69 | 1004.2 |
| 20260505083844 | 53 | 355 | 3.0 | 5.0 | 0.00 | 0.00 | 0.00 | 69 | 1003.8 |
| 20260505083342 | 53 | 26 | 0.0 | 4.0 | 0.00 | 0.00 | 0.00 | 69 | 1003.7 |
| 20260505082838 | 53 | 0 | 2.0 | 3.0 | 0.00 | 0.00 | 0.00 | 70 | 1003.3 |
| 20260505082334 | 53 | 261 | 0.0 | 2.0 | 0.00 | 0.00 | 0.00 | 70 | 1003.0 |
| 20260505081831 | 53 | 243 | 0.0 | 2.0 | 0.00 | 0.00 | 0.00 | 68 | 1003.0 |
| 20260505081327 | 54 | 90 | 0.0 | 3.0 | 0.00 | 0.00 | 0.00 | 65 | 1002.7 |
| 20260505080824 | 54 | 209 | 2.0 | 3.0 | 0.00 | 0.00 | 0.00 | 64 | 1002.9 |
| 20260505080320 | 54 | 342 | 0.0 | 2.0 | 0.00 | 0.00 | 0.00 | 65 | 1002.5 |
| 20260505075815 | 54 | 221 | 2.0 | 3.0 | 0.00 | 0.00 | 0.00 | 64 | 1002.4 |
| 20260505075313 | 54 | 78 | 0.0 | 4.0 | 0.00 | 0.00 | 0.00 | 63 | 1002.2 |
| 20260505074810 | 54 | 0 | 0.0 | 6.0 | 0.00 | 0.00 | 0.00 | 63 | 1002.3 |
| 20260505074307 | 54 | 4 | 2.0 | 3.0 | 0.00 | 0.00 | 0.00 | 64 | 1002.1 |
| 20260505073805 | 54 | 270 | 1.0 | 2.0 | 0.00 | 0.00 | 0.00 | 65 | 1002.0 |
| 20260505073303 | 54 | 90 | 1.0 | 4.0 | 0.00 | 0.00 | 0.00 | 65 | 1001.9 |
| 20260505072759 | 54 | 259 | 0.0 | 3.0 | 0.00 | 0.00 | 0.00 | 66 | 1001.7 |
| 20260505072255 | 54 | 120 | 0.0 | 2.0 | 0.00 | 0.00 | 0.00 | 67 | 1001.9 |
| 20260505071751 | 54 | 0 | 0.0 | 3.0 | 0.00 | 0.00 | 0.00 | 66 | 1001.7 |
| 20260505071248 | 54 | 0 | 0.0 | 2.0 | 0.00 | 0.00 | 0.00 | 67 | 1001.6 |
| 20260505070745 | 54 | 252 | 3.0 | 3.0 | 0.00 | 0.00 | 0.00 | 66 | 1001.6 |
| 20260505070242 | 55 | 81 | 0.0 | 5.0 | 0.00 | 0.00 | 0.00 | 65 | 1001.5 |
| 20260505065737 | 55 | 349 | 2.0 | 3.0 | 0.00 | 0.00 | 0.00 | 65 | 1001.4 |
| 20260505065234 | 55 | 74 | 1.0 | 4.0 | 0.00 | 0.00 | 0.00 | 64 | 1001.3 |
| 20260505064731 | 55 | 60 | 1.0 | 4.0 | 0.00 | 0.00 | 0.00 | 66 | 1001.5 |
| 20260505064229 | 55 | 288 | 2.0 | 5.0 | 0.00 | 0.00 | 0.00 | 66 | 1001.2 |
| 20260505063726 | 55 | 78 | 1.0 | 6.0 | 0.00 | 0.00 | 0.00 | 67 | 1001.2 |
| 20260505063223 | 55 | 286 | 0.0 | 4.0 | 0.00 | 0.00 | 0.00 | 69 | 1001.1 |
| 20260505062719 | 55 | 303 | 0.0 | 3.0 | 0.00 | 0.00 | 0.00 | 67 | 1000.7 |
| 20260505062217 | 54 | 299 | 2.0 | 3.0 | 0.00 | 0.00 | 0.00 | 70 | 1000.8 |
| 20260505061713 | 52 | 345 | 2.0 | 3.0 | 0.00 | 0.00 | 0.00 | 77 | 1000.8 |
| 20260505061212 | 50 | 319 | 2.0 | 3.0 | 0.00 | 0.00 | 0.00 | 90 | 1000.8 |
| 20260505060708 | 50 | 19 | 2.0 | 6.0 | 0.00 | 0.00 | 0.00 | 95 | 1000.6 |
| 20260505060205 | 50 | 298 | 0.0 | 7.0 | 0.00 | 0.00 | 0.00 | 94 | 1000.6 |
| 20260505055700 | 51 | 283 | 1.0 | 3.0 | 0.00 | 0.00 | 0.00 | 94 | 1000.6 |
| 20260505055157 | 50 | 29 | 2.0 | 5.0 | 0.00 | 0.00 | 0.00 | 94 | 1000.6 |
| 20260505054655 | 51 | 297 | 0.0 | 3.0 | 0.00 | 0.00 | 0.00 | 94 | 1000.8 |
| 20260505054153 | 52 | 99 | 0.0 | 5.0 | 0.00 | 0.00 | 0.00 | 94 | 1000.7 |
| 20260505053650 | 52 | 0 | 0.0 | 3.0 | 0.00 | 0.00 | 0.00 | 94 | 1000.6 |
| 20260505053146 | 52 | 6 | 1.0 | 3.0 | 0.00 | 0.00 | 0.00 | 94 | 1000.6 |
| 20260505052644 | 53 | 334 | 1.0 | 4.0 | 0.00 | 0.00 | 0.00 | 95 | 1000.7 |
| 20260505052141 | 53 | 291 | 0.0 | 6.0 | 0.00 | 0.00 | 0.00 | 95 | 1000.9 |
| 20260505051637 | 54 | 20 | 1.0 | 3.0 | 0.00 | 0.00 | 0.00 | 95 | 1000.9 |
| 20260505051136 | 54 | 12 | 2.0 | 5.0 | 0.00 | 0.00 | 0.00 | 95 | 1000.8 |
| 20260505050633 | 55 | 6 | 1.0 | 5.0 | 0.00 | 0.00 | 0.00 | 95 | 1000.7 |
| 20260505050132 | 55 | 0 | 1.0 | 5.0 | 0.00 | 0.00 | 0.00 | 95 | 1000.5 |
| 20260505041601 | 56 | 337 | 0.0 | 3.0 | 0.00 | 1.30 | 1.30 | 95 | 999.7 |
| 20260505041058 | 56 | 254 | 1.0 | 4.0 | 0.00 | 1.30 | 1.30 | 95 | 999.7 |
| 20260505040556 | 56 | 74 | 1.0 | 5.0 | 0.00 | 1.30 | 1.30 | 95 | 999.8 |
| 20260505040053 | 56 | 261 | 0.0 | 4.0 | 0.00 | 1.30 | 1.30 | 95 | 999.7 |